Simultaneous Nadir Overpasses (SNOs) Predictions

Prediction of SNOs between GOES-16 and NOAA-20 Satellite Orbit:

Table of predicted SNOs for the next 14.0 days since TLE Epoch: 3/7/2025
Index Date Time (GOES-16) GOES-16 Lat,Lon NOAA-20 Lat,Lon Distance(km) Time Diff (sec)
1 03/08/2025 06:30:48 -0.06, -75.25 0.22, -76.47 139.27 80
2 03/09/2025 06:09:22 -0.06, -75.25 -0.81, -71.93 378.74 80
3 03/10/2025 18:31:17 0.05, -75.27 -0.40, -77.22 223.20 80
4 03/11/2025 18:15:11 0.05, -75.29 0.62, -72.69 295.74 80
5 03/13/2025 06:36:57 -0.04, -75.33 0.53, -77.96 299.52 80
6 03/14/2025 06:15:32 -0.04, -75.35 -0.50, -73.42 219.64 80
7 03/15/2025 18:37:26 0.04, -75.37 -0.70, -78.72 381.21 80
8 03/16/2025 18:21:21 0.04, -75.40 0.33, -74.18 138.55 80
9 03/18/2025 06:43:06 -0.04, -75.45 0.87, -79.44 455.23 80
10 03/19/2025 06:21:41 -0.04, -75.47 -0.17, -74.91 64.41 80
11 03/21/2025 18:24:49 0.03, -75.52 0.02, -75.67 16.24 80
